�������l�o���
Date,Time,MP-1(��Sv/h),MP-2(��Sv/h),MP-3(��Sv/h),MP-4(��Sv/h),MP-5(��Sv/h),MP-6(��Sv/h),MP-7(��Sv/h),MP-8(��Sv/h),����,����(m/s),���J
2021/08/17,00:00,0.572,0.851,0.543,1.039,0.721,0.355,0.611,0.578,�k��,4.0,��
2021/08/17,00:10,0.572,0.849,0.542,1.039,0.721,0.355,0.610,0.577,�k�k��,4.4,��
2021/08/17,00:20,0.573,0.851,0.542,1.039,0.719,0.357,0.611,0.577,�k��,4.0,��
2021/08/17,00:30,0.573,0.851,0.542,1.039,0.720,0.355,0.611,0.576,�k��,3.8,��
2021/08/17,00:40,0.572,0.849,0.542,1.035,0.720,0.356,0.611,0.577,�k��,3.2,�L
2021/08/17,00:50,0.573,0.850,0.542,1.040,0.721,0.356,0.612,0.577,�k��,3.3,�L
2021/08/17,01:00,0.572,0.851,0.544,1.037,0.720,0.355,0.611,0.576,�k��,3.7,�L
2021/08/17,01:10,0.573,0.851,0.543,1.040,0.721,0.356,0.610,0.579,�k�k��,4.4,��
2021/08/17,01:20,0.573,0.851,0.544,1.040,0.721,0.357,0.612,0.577,�k�k��,4.9,��
2021/08/17,01:30,0.570,0.853,0.541,1.041,0.722,0.356,0.612,0.577,�k�k��,5.2,��
2021/08/17,01:40,0.573,0.851,0.541,1.039,0.721,0.356,0.611,0.577,�k�k��,4.1,��
2021/08/17,01:50,0.573,0.852,0.543,1.039,0.722,0.355,0.611,0.579,�k�k��,4.2,��
2021/08/17,02:00,0.574,0.850,0.543,1.040,0.722,0.356,0.612,0.578,�k�k��,4.8,��
2021/08/17,02:10,0.571,0.853,0.542,1.038,0.723,0.356,0.611,0.579,�k�k��,4.9,��
2021/08/17,02:20,0.572,0.852,0.543,1.039,0.723,0.356,0.610,0.578,�k�k��,4.7,��
2021/08/17,02:30,0.573,0.852,0.542,1.041,0.720,0.355,0.611,0.578,�k�k��,4.7,�L
2021/08/17,02:40,0.573,0.850,0.542,1.040,0.719,0.356,0.612,0.579,�k�k��,5.6,�L
2021/08/17,02:50,0.571,0.850,0.542,1.039,0.721,0.355,0.612,0.578,�k�k��,5.3,�L
2021/08/17,03:00,0.572,0.851,0.541,1.041,0.722,0.355,0.611,0.577,�k�k��,5.0,��
2021/08/17,03:10,0.571,0.849,0.542,1.039,0.721,0.355,0.611,0.578,�k�k��,5.1,��
2021/08/17,03:20,0.573,0.850,0.542,1.041,0.722,0.355,0.611,0.578,�k�k��,5.1,��
2021/08/17,03:30,0.573,0.851,0.542,1.039,0.723,0.355,0.610,0.578,�k�k��,5.4,��
2021/08/17,03:40,0.571,0.851,0.542,1.038,0.722,0.356,0.611,0.578,�k�k��,4.4,��
2021/08/17,03:50,0.572,0.851,0.543,1.039,0.722,0.355,0.612,0.579,�k�k��,4.5,��
2021/08/17,04:00,0.571,0.851,0.541,1.040,0.722,0.357,0.610,0.577,�k�k��,4.8,��
2021/08/17,04:10,0.571,0.851,0.542,1.039,0.721,0.356,0.611,0.578,�k�k��,5.2,��
2021/08/17,04:20,0.573,0.851,0.544,1.038,0.725,0.356,0.613,0.577,�k�k��,4.9,�L
2021/08/17,04:30,0.571,0.851,0.541,1.039,0.722,0.356,0.612,0.578,�k�k��,4.5,��
2021/08/17,04:40,0.573,0.852,0.542,1.038,0.721,0.355,0.612,0.578,�k�k��,4.9,�L
2021/08/17,04:50,0.572,0.852,0.542,1.040,0.723,0.356,0.612,0.579,�k�k��,4.6,��
2021/08/17,05:00,0.573,0.851,0.541,1.039,0.723,0.356,0.610,0.577,�k�k��,3.7,��
2021/08/17,05:10,0.572,0.852,0.544,1.041,0.722,0.356,0.612,0.578,�k�k��,3.3,��
2021/08/17,05:20,0.573,0.852,0.542,1.041,0.722,0.356,0.612,0.578,�k��,3.8,�L
2021/08/17,05:30,0.573,0.851,0.544,1.041,0.723,0.355,0.612,0.578,�k��,4.4,��
2021/08/17,05:40,0.572,0.852,0.544,1.040,0.721,0.357,0.609,0.579,�k��,3.6,�L
2021/08/17,05:50,0.573,0.855,0.543,1.042,0.723,0.357,0.611,0.578,�k�k��,4.1,�L
2021/08/17,06:00,0.574,0.851,0.543,1.041,0.725,0.357,0.611,0.578,�k�k��,4.2,�L
2021/08/17,06:10,0.573,0.850,0.542,1.040,0.723,0.356,0.610,0.579,�k�k��,3.9,�L
2021/08/17,06:20,0.574,0.852,0.544,1.042,0.724,0.355,0.612,0.579,�k�k��,4.3,�L
2021/08/17,06:30,0.572,0.852,0.542,1.040,0.723,0.356,0.612,0.579,�k�k��,4.9,�L
2021/08/17,06:40,0.572,0.852,0.543,1.042,0.722,0.358,0.612,0.578,�k�k��,4.5,�L
2021/08/17,06:50,0.571,0.852,0.542,1.041,0.724,0.357,0.612,0.579,�k�k��,4.3,��
2021/08/17,07:00,0.572,0.850,0.543,1.039,0.722,0.356,0.612,0.578,�k�k��,3.7,�L
2021/08/17,07:10,0.572,0.850,0.542,1.039,0.723,0.357,0.612,0.577,�k�k��,3.6,�L
2021/08/17,07:20,0.570,0.851,0.542,1.041,0.722,0.357,0.613,0.579,�k�k��,3.2,�L
2021/08/17,07:30,0.572,0.852,0.541,1.041,0.724,0.355,0.613,0.577,�k�k��,3.3,�L
2021/08/17,07:40,0.572,0.853,0.542,1.040,0.722,0.355,0.612,0.579,�k�k��,3.2,�L
2021/08/17,07:50,0.571,0.849,0.544,1.042,0.721,0.356,0.611,0.575,�k�k��,2.6,�L
2021/08/17,08:00,0.572,0.849,0.542,1.043,0.721,0.356,0.611,0.575,�k�k��,2.6,�L
2021/08/17,08:10,0.570,0.847,0.542,1.039,0.721,0.357,0.610,0.574,�k�k��,3.2,�L
2021/08/17,08:20,0.569,0.847,0.541,1.039,0.721,0.356,0.611,0.576,�k�k��,3.3,�L
2021/08/17,08:30,0.569,0.846,0.542,1.038,0.720,0.355,0.610,0.576,�k�k��,2.6,�L
2021/08/17,08:40,0.570,0.846,0.542,1.037,0.720,0.355,0.611,0.576,�k�k��,2.6,�L
2021/08/17,08:50,0.570,0.845,0.541,1.041,0.718,0.355,0.611,0.576,�k�k��,3.3,�L
2021/08/17,09:00,0.569,0.846,0.542,1.040,0.718,0.354,0.610,0.575,�k,2.6,��
2021/08/17,09:10,0.569,0.848,0.541,1.038,0.720,0.356,0.612,0.576,�k�k��,2.2,�L
2021/08/17,09:20,0.570,0.846,0.540,1.040,0.719,0.355,0.610,0.575,�k,2.2,�L
2021/08/17,09:30,0.570,0.846,0.542,1.038,0.719,0.355,0.613,0.576,�k�k��,2.5,�L
2021/08/17,09:40,0.571,0.847,0.539,1.038,0.719,0.354,0.614,0.575,�k�k��,2.2,�L
2021/08/17,09:50,0.570,0.845,0.538,1.038,0.720,0.354,0.611,0.575,�k�k��,2.3,��
2021/08/17,10:00,0.568,0.844,0.538,1.039,0.719,0.355,0.613,0.574,�k�k��,3.0,��
2021/08/17,10:10,0.570,0.847,0.538,1.038,0.720,0.355,0.612,0.576,�k�k��,3.4,��
2021/08/17,10:20,0.572,0.844,0.539,1.040,0.719,0.355,0.612,0.575,�k,3.6,��
2021/08/17,10:30,0.569,0.844,0.540,1.039,0.720,0.354,0.612,0.574,�k�k��,3.4,�L
2021/08/17,10:40,0.571,0.845,0.540,1.039,0.722,0.354,0.612,0.576,�k,3.3,�L
2021/08/17,10:50,0.571,0.845,0.540,1.039,0.720,0.356,0.613,0.575,�k,2.8,�L
2021/08/17,11:00,0.570,0.844,0.539,1.038,0.720,0.355,0.614,0.574,�k,3.3,�L
2021/08/17,11:10,0.569,0.843,0.539,1.039,0.719,0.356,0.612,0.574,�k,2.3,�L
2021/08/17,11:20,0.569,0.841,0.539,1.033,0.717,0.355,0.610,0.575,�k,2.6,�L
2021/08/17,11:30,0.568,0.839,0.536,1.033,0.715,0.354,0.609,0.573,�k,2.2,�L
2021/08/17,11:40,0.568,0.836,0.537,1.032,0.714,0.354,0.609,0.573,�k,3.0,�L
2021/08/17,11:50,0.564,0.836,0.536,1.032,0.714,0.353,0.609,0.573,�k,2.9,�L
2021/08/17,12:00,0.563,0.832,0.536,1.027,0.710,0.354,0.607,0.571,�k,2.3,�L
2021/08/17,12:10,0.562,0.831,0.536,1.024,0.709,0.353,0.608,0.570,�k,2.0,�L
2021/08/17,12:20,0.564,0.831,0.536,1.024,0.710,0.353,0.608,0.571,�k,2.3,�L
2021/08/17,12:30,0.564,0.834,0.535,1.025,0.709,0.352,0.608,0.572,�k,1.7,�L
2021/08/17,12:40,0.563,0.830,0.534,1.022,0.709,0.353,0.607,0.570,�k,2.2,�L
2021/08/17,12:50,0.563,0.831,0.535,1.023,0.708,0.351,0.607,0.571,�k,2.3,�L
2021/08/17,13:00,0.562,0.834,0.534,1.023,0.707,0.352,0.607,0.570,�k,1.7,�L
2021/08/17,13:10,0.560,0.827,0.533,1.022,0.709,0.352,0.606,0.571,�k,2.2,�L
2021/08/17,13:20,0.562,0.827,0.534,1.020,0.706,0.352,0.605,0.569,�k,1.5,�L
2021/08/17,13:30,0.560,0.825,0.535,1.018,0.704,0.351,0.606,0.569,�k,1.2,�L
2021/08/17,13:40,0.559,0.826,0.533,1.015,0.703,0.352,0.605,0.569,�k�k��,1.4,�L
2021/08/17,13:50,0.559,0.824,0.532,1.014,0.703,0.352,0.605,0.568,�k,0.9,�L
2021/08/17,14:00,0.560,0.826,0.532,1.015,0.703,0.351,0.605,0.569,�k�k��,0.9,�L
2021/08/17,14:10,0.561,0.826,0.534,1.015,0.703,0.350,0.604,0.569,�k�k��,0.9,�L
2021/08/17,14:20,0.560,0.826,0.532,1.016,0.703,0.350,0.604,0.570,�k�k��,0.9,�L
2021/08/17,14:30,0.560,0.826,0.532,1.015,0.704,0.349,0.605,0.569,�k,0.6,�L
2021/08/17,14:40,0.560,0.824,0.533,1.016,0.701,0.350,0.604,0.569,-,CALM,�L
2021/08/17,14:50,0.559,0.823,0.531,1.013,0.699,0.351,0.604,0.568,-,CALM,�L
2021/08/17,15:00,0.556,0.818,0.530,1.011,0.697,0.349,0.602,0.566,���k��,3.3,�L
2021/08/17,15:10,0.552,0.815,0.525,1.000,0.690,0.348,0.598,0.564,-,CALM,�L
2021/08/17,15:20,0.551,0.813,0.525,0.992,0.685,0.344,0.594,0.560,���쓌,4.2,�L
2021/08/17,15:30,0.552,0.816,0.528,0.994,0.690,0.347,0.598,0.562,-,CALM,�L
2021/08/17,15:40,0.555,0.819,0.529,0.999,0.691,0.348,0.598,0.564,-,CALM,�L
2021/08/17,15:50,0.555,0.821,0.530,1.003,0.693,0.349,0.600,0.564,-,CALM,�L
2021/08/17,16:00,0.556,0.822,0.529,1.003,0.694,0.350,0.599,0.564,��쓌,0.6,�L
2021/08/17,16:10,0.559,0.822,0.530,1.005,0.695,0.349,0.600,0.566,��쓌,0.6,�L
2021/08/17,16:20,0.557,0.824,0.530,1.005,0.694,0.349,0.600,0.566,-,CALM,�L
2021/08/17,16:30,0.556,0.823,0.532,1.007,0.696,0.349,0.599,0.567,-,CALM,�L
2021/08/17,16:40,0.561,0.824,0.531,1.010,0.694,0.350,0.601,0.567,-,CALM,�L
2021/08/17,16:50,0.559,0.826,0.532,1.009,0.695,0.349,0.601,0.567,-,CALM,�L
2021/08/17,17:00,0.558,0.822,0.530,1.010,0.695,0.350,0.600,0.566,���쓌,1.1,�L
2021/08/17,17:10,0.558,0.824,0.529,1.008,0.695,0.350,0.600,0.566,���쓌,1.5,�L
2021/08/17,17:20,0.559,0.824,0.531,1.011,0.695,0.350,0.601,0.567,�쓌,1.2,��
2021/08/17,17:30,0.558,0.826,0.530,1.011,0.692,0.349,0.601,0.567,���쓌,0.9,�L
2021/08/17,17:40,0.559,0.824,0.531,1.011,0.695,0.350,0.600,0.566,��,1.2,�L
2021/08/17,17:50,0.558,0.823,0.531,1.012,0.695,0.349,0.601,0.567,���k��,0.8,�L
2021/08/17,18:00,0.557,0.827,0.531,1.011,0.696,0.349,0.601,0.568,��,0.6,�L
2021/08/17,18:10,0.559,0.826,0.530,1.009,0.695,0.351,0.603,0.566,���k��,0.8,�L
2021/08/17,18:20,0.558,0.819,0.527,1.007,0.689,0.350,0.600,0.566,-,CALM,�L
2021/08/17,18:30,0.555,0.821,0.528,1.005,0.692,0.350,0.599,0.565,���쓌,0.6,�L
2021/08/17,18:40,0.556,0.822,0.527,1.006,0.692,0.350,0.600,0.567,�쓌,0.9,�L
2021/08/17,18:50,0.555,0.822,0.527,1.009,0.689,0.349,0.599,0.566,��,1.2,�L
2021/08/17,19:00,0.556,0.822,0.530,1.007,0.691,0.349,0.600,0.567,���k��,0.6,�L
2021/08/17,19:10,0.556,0.825,0.529,1.008,0.691,0.350,0.600,0.566,�k�k��,0.6,�L
2021/08/17,19:20,0.559,0.822,0.529,1.008,0.692,0.350,0.601,0.566,���k��,1.5,�L
2021/08/17,19:30,0.558,0.823,0.530,1.012,0.693,0.351,0.600,0.566,���k��,0.9,�L
2021/08/17,19:40,0.559,0.827,0.532,1.010,0.694,0.350,0.601,0.567,-,CALM,�L
2021/08/17,19:50,0.559,0.827,0.531,1.012,0.693,0.351,0.601,0.568,�k��,0.6,�L
2021/08/17,20:00,0.559,0.826,0.530,1.011,0.695,0.351,0.601,0.565,-,CALM,�L
2021/08/17,20:10,0.558,0.826,0.530,1.010,0.694,0.350,0.601,0.566,-,CALM,�L
2021/08/17,20:20,0.559,0.824,0.529,1.008,0.690,0.349,0.601,0.567,�쓌,0.6,�L
2021/08/17,20:30,0.556,0.819,0.528,1.004,0.689,0.348,0.601,0.565,�k�k��,0.6,�L
2021/08/17,20:40,0.558,0.821,0.528,1.004,0.689,0.350,0.598,0.565,-,CALM,�L
2021/08/17,20:50,0.556,0.820,0.529,1.005,0.690,0.350,0.600,0.567,���쐼,1.1,�L
2021/08/17,21:00,0.559,0.822,0.530,1.007,0.692,0.349,0.601,0.567,���쐼,1.5,�L
2021/08/17,21:10,0.558,0.822,0.530,1.007,0.690,0.350,0.601,0.567,��,1.5,�L
2021/08/17,21:20,0.557,0.823,0.530,1.007,0.692,0.348,0.601,0.566,��,2.3,�L
2021/08/17,21:30,0.559,0.827,0.531,1.005,0.694,0.351,0.601,0.565,��,2.0,�L
2021/08/17,21:40,0.558,0.825,0.531,1.010,0.692,0.350,0.599,0.565,��,1.7,�L
2021/08/17,21:50,0.552,0.818,0.529,1.006,0.689,0.349,0.599,0.564,��쓌,1.9,�L
2021/08/17,22:00,0.554,0.822,0.529,1.005,0.690,0.349,0.599,0.563,��쓌,2.3,�L
2021/08/17,22:10,0.555,0.822,0.528,1.005,0.689,0.348,0.599,0.565,��,2.3,�L
2021/08/17,22:20,0.556,0.821,0.530,1.007,0.691,0.349,0.598,0.564,��쓌,4.0,�L
2021/08/17,22:30,0.556,0.822,0.530,1.008,0.691,0.349,0.599,0.564,��,4.3,�L
2021/08/17,22:40,0.557,0.823,0.529,1.007,0.694,0.351,0.600,0.566,��,4.6,��
2021/08/17,22:50,0.559,0.824,0.532,1.007,0.694,0.349,0.602,0.567,��,4.1,��
2021/08/17,23:00,0.559,0.827,0.531,1.013,0.694,0.350,0.600,0.566,��,4.1,�L
2021/08/17,23:10,0.561,0.826,0.534,1.013,0.692,0.352,0.601,0.566,��,5.4,�L
2021/08/17,23:20,0.560,0.828,0.532,1.012,0.693,0.351,0.600,0.567,��,5.5,�L
2021/08/17,23:30,0.561,0.828,0.533,1.015,0.696,0.352,0.602,0.567,��,6.4,�L
2021/08/17,23:40,0.561,0.828,0.534,1.013,0.695,0.352,0.599,0.564,��,5.8,�L
2021/08/17,23:50,0.553,0.819,0.529,1.004,0.686,0.346,0.592,0.557,��쓌,7.6,�L
